Weather History for PHNL - October, 2014

Change the Weather History Date:

Saturday, October 18, 2014

  Actual Average Record
Temperature  
Mean Temperature 81 °F 80 °F  
Max Temperature 84 °F 87 °F 91 °F (1986)
Min Temperature 77 °F 73 °F 66 °F (1971)
Degree Days  
Heating Degree Days 0 0  
Month to date heating degree days 0 0  
Since 1 July heating degree days 0 0  
Cooling Degree Days 16 15  
Month to date cooling degree days 316 279  
Year to date cooling degree days 4019 3758  
Growing Degree Days 28 (Base 50)    
Moisture  
Dew Point 74 °F    
Average Humidity 81    
Maximum Humidity 88    
Minimum Humidity 74    
Precipitation  
Precipitation 0.14 in 0.06 in 0.68 in (1973)
Month to date precipitation 0.39 0.91  
Year to date precipitation 13.20 10.51  
Snow  
Snow 0.00 in - - ()
Month to date snowfall 0.0  
Since 1 July snowfall 0.0  
Since 1 September snowfall 0.0  
Snow Depth 0.00 in    
Sea Level Pressure  
Sea Level Pressure 29.95 in    
Wind  
Wind Speed 10 mph (East)    
Max Wind Speed 26 mph    
Max Gust Speed 32 mph    
Visibility 9 miles    
Events Rain , Thunderstorm    
T = Trace of Precipitation, MM = Missing Value Source: NWS Daily Summary

Daily Weather History Graph

Daily Weather History Graph

Search for Another Location

Airport or City:

Trip Planner

Search our weather history database for the weather conditions in past years. The results will help you decide how hot, cold, wet, or windy it might be!

Date:

Astronomy

Oct. 18, 2014 Rise Set
Actual Time 6:28 AM HST 6:04 PM HST
Civil Twilight 6:06 AM HST 6:27 PM HST
Nautical Twilight 5:40 AM HST 6:53 PM HST
Astronomical Twilight 5:14 AM HST 7:18 PM HST
Moon 2:11 AM HST (10/18) 2:59 PM HST (10/18)
Length of Visible Light 12h 21m
Length of Day
11h 36m
Waning Crescent, 22% of the Moon is Illuminated
Oct 18
Waning Crescent
Oct 23
New
Oct 30
First Quarter
Nov 6
Full
Nov 14
Last Quarter

Hourly Weather History & Observations

Time (HST) Temp. Heat Index Dew Point Humidity Pressure Visibility Wind Dir Wind Speed Gust Speed Precip Events Conditions
12:53 AM 80.1 °F 85.4 °F 75.9 °F 87% 29.93 in 9.0 mi ENE 6.9 mph - 0.02 in Rain Light Rain
1:53 AM 80.1 °F 85.1 °F 75.0 °F 85% 29.91 in 10.0 mi ENE 13.8 mph - 0.01 in   Mostly Cloudy
2:53 AM 80.1 °F 85.1 °F 75.0 °F 85% 29.91 in 10.0 mi NE 10.4 mph - 0.01 in   Mostly Cloudy
3:53 AM 80.1 °F 85.1 °F 75.0 °F 85% 29.91 in 10.0 mi Calm Calm - N/A   Scattered Clouds
4:37 AM 78.8 °F - 75.2 °F 89% 29.90 in 10.0 mi ESE 4.6 mph - N/A Thunderstorm Thunderstorm
4:53 AM 80.1 °F 85.1 °F 75.0 °F 85% 29.90 in 10.0 mi Calm Calm - N/A Thunderstorm Thunderstorm
5:24 AM 80.6 °F 86.2 °F 75.2 °F 84% 29.89 in 10.0 mi NNW 6.9 mph - N/A   Scattered Clouds
5:53 AM 80.1 °F 84.5 °F 73.9 °F 81% 29.92 in 10.0 mi NW 4.6 mph - N/A   Scattered Clouds
6:53 AM 80.1 °F 85.1 °F 75.0 °F 85% 29.94 in 10.0 mi NW 5.8 mph - N/A   Mostly Cloudy
7:53 AM 82.9 °F 90.2 °F 75.0 °F 77% 29.95 in 10.0 mi East 6.9 mph - N/A   Mostly Cloudy
8:53 AM 84.0 °F 91.9 °F 75.0 °F 74% 29.97 in 10.0 mi East 6.9 mph - N/A   Overcast
9:53 AM 82.9 °F 91.8 °F 77.0 °F 82% 29.97 in 10.0 mi ESE 12.7 mph - N/A   Overcast
10:53 AM 82.0 °F 89.4 °F 75.9 °F 82% 29.98 in 10.0 mi ESE 10.4 mph - 0.00 in Rain Light Rain
11:53 AM 81.0 °F 86.7 °F 75.0 °F 82% 29.95 in 10.0 mi East 18.4 mph 25.3 mph 0.01 in   Mostly Cloudy
12:53 PM 81.0 °F 84.9 °F 71.1 °F 72% 29.94 in 10.0 mi ESE 16.1 mph 24.2 mph N/A   Mostly Cloudy
1:53 PM 79.0 °F - 72.0 °F 79% 29.95 in 10.0 mi East 16.1 mph 27.6 mph 0.00 in Rain Light Rain
2:53 PM 77.0 °F - 73.0 °F 88% 29.93 in 7.0 mi ESE 16.1 mph - 0.04 in Rain Light Rain
3:53 PM 77.0 °F - 75.0 °F 94% 29.93 in 6.0 mi ESE 17.3 mph 26.5 mph 0.04 in Rain Rain
4:53 PM 75.9 °F - 73.9 °F 94% 29.92 in 7.0 mi East 11.5 mph - 0.12 in Rain Light Rain
5:53 PM 78.1 °F - 71.1 °F 79% 29.94 in 10.0 mi East 5.8 mph - 0.02 in Rain Light Rain
6:53 PM 77.0 °F - 70.0 °F 79% 29.97 in 8.0 mi East 10.4 mph - 0.03 in Rain Rain
7:53 PM 75.9 °F - 73.9 °F 94% 30.01 in 6.0 mi ESE 10.4 mph - 0.16 in Rain Heavy Rain
8:53 PM 75.9 °F - 72.5 °F 89% 30.02 in 5.0 mi ESE 10.4 mph - 0.17 in Rain Heavy Rain
9:53 PM 75.9 °F - 72.5 °F 89% 30.04 in 7.0 mi East 12.7 mph - 0.23 in Rain Rain
10:53 PM 77.0 °F - 72.5 °F 86% 30.02 in 10.0 mi East 12.7 mph 19.6 mph 0.06 in Rain Light Rain
11:53 PM 75.9 °F - 72.5 °F 89% 30.01 in 7.0 mi East 9.2 mph - 0.10 in Rain Rain